Погода Каменск-Шахтинский

Погода Каменск-Шахтинский : погода сейчас, прогноз погоды и архив. Всё, что Вы хотите узнать о погоде Каменск-Шахтинский!

Хотите узнать прогноз погоды Каменск-Шахтинский? Тогда Вам сюда: Погода Каменск-Шахтинский

Поиск расширенной информации на нашем сайте:

Другие новости

Новости СМИ2

Главная страница сайта

Новости сайта

03.07.2017

Напоминаем, что на нашем специализированном сайте Метеоцентр.Азия вы можете получить высокодетализированные автоматические прогнозы погоды по пунктам России, СНГ и мира в авиационном формате (включающие направление и скорость ветра, видимость, явления погоды, количество и форму облачности, нижнюю и верхнюю границу облачности).


Погода Каменск-Шахтинский - сегодня

Время (UTC), дата Ветер
(°,м/с) 
Видим.   Явления Облачность Т
(°С)
Тd
(°С)
f(%) Тe
(°С)
Pmin
(гПа)
dP
(гПа)
Po
(мм)
O2
(г/м3)
Тmin Tmax R s Состояние
почвы
12 20.10.17 260 (З) 10 км    10/10 300 м 
[St]
+13.9 +10.9 82 +17  1018.4  -0.4  759  289           
15 20.10.17 010 (С) 4000 м  дымка{морось}  10/10 300 м 
[St]
+12.9 +11.1 89 +16  1018.6  0.2  759  290    +13.9  0.0     
18 20.10.17 110 (В) 20000 м  слаб. морось  10/10 300 м 
[St]
+12 +10.5 91 +15  1018.9  0.2  759  291           
21 20.10.17 070 (В) 20000 м  {морось}  10/10 300 м 
[St]
+10.5 +8.8 89 +12  1018.8  -0.2  759  293           
00 21.10.17 090 (В) 20000 м  {морось}  10/10 300 м 
[Sc]
+9.3 +6.7 84 +9  1018.9  0.1  759  295           
03 21.10.17 080 (В) 20000 м  слаб. дождь{морось}  10/10 300 м 
[Sc]
+7.8 +6.3 90 +8  1018.7  -0.2  759  296  +7.8    0.0    влажная 
06 21.10.17 090 (В) 20000 м  слаб. дождь  10/10 300 м 
[Sc]
+7.9 +4.7 80 +8  1018.9  0.2  759  296  +7.6         
09 21.10.17 090 (В) 20000 м  {дождь}  9/8 600 м кучево-дожд., средняя 
[Cb calv|Ac trans]
+8.8 +5.2 78 +8  1018.3  -0.5  758  295           
12 21.10.17 090 (В) 20000 м  {дождь}  10/9 600 м кучево-дожд., средняя 
[Cb calv|Ac trans]
+9.3 +5.5 77 +9  1016.7  -1.6  757  294           
15 21.10.17 090 (В) 20000 м    10/10 600 м кучево-дожд. 
[Cb calv]
+7.4 +4.9 84 +7  1016.9  0.1  757  296    +9.3  0.5     
18 21.10.17 140 (ЮВ) 20000 м  слаб. ливневой дождь  10/10 600 м кучево-дожд. 
[Cb calv]
+6.8 +5.4 91 +7  1016.1  -0.8  757  297           
21 21.10.17 130 (ЮВ) 20000 м  слаб. ливневой дождь  10/10 600 м кучево-дожд. 
[Cb calv]
+7 +5.7 91 +8  1014.7  -1.4  756  296           
00 22.10.17 110 (В) 20000 м  {ливн. осадки}  10/6 600 м кучево-дожд., средняя 
[Cb calv|Ac trans]
+7.2 +5.8 91 +7  1013.1  -1.7  754  295           
03 22.10.17 040 (СВ) 10 км  слаб. ливневой дождь  10/10 600 м кучево-дожд. 
[Cb calv]
+7.1 +5.9 92 +7  1012.2  -0.8  754  295  +6.8       
06 22.10.17 070 (В) 10 км  слаб. ливневой дождь  10/9 600 м кучево-дожд., средняя 
[Cb cap|Ac As]
+7.1 +5.7 91 +7  1012  -0.2  754  295  +6.8         
09 22.10.17 060 (СВ) 20000 м  слаб. ливневой дождь  10/9 600 м кучево-дожд., средняя 
[Cb cap|Ac As]
+6.4 +4.7 89 +5  1012.3  0.3  754  296           
12 22.10.17 020 (С) 20000 м  в посл. час ливневой дождь  10/8 600 м кучево-дожд., средняя 
[Cb cap|Ac As]
+6.7 +4.5 86 +6  1012.7  0.4  754  296           
15 22.10.17 020 (С) 20000 м    10/9 600 м кучево-дожд., средняя 
[Cb cap|Ac As]
+6.2 +3.7 84 +5  1014.2  1.5  755  297    +7.1     
18 22.10.17 360 (С) 20000 м    10/6 600 м кучево-дожд., средняя 
[Cb cap|Ac As]
+5.4 +2.9 84 +4  1016.3  2.1  757  299           
21 22.10.17 340 (С) 20000 м    8/0 средняя 
[Ac trans]
+3.1 +1 86 +3  1018.6  2.2  759  302           
00 23.10.17 320 (СЗ) 20000 м    8/0 средняя 
[Ac trans]
+1.4 -0.2 89 +2  1020.4  1.7  760  305           
03 23.10.17 310 (СЗ) 20000 м    1/0 средняя 
[Ac trans]
-0.6 -1.8 92 1021.8  1.3  761  307  -0.6        влажная 
06 23.10.17 350 (С) 20000 м    ясно 
+0.8 -1.9 82 +1  1023.1  1.3  762  306  -0.7         
09 23.10.17 020 (С) 20000 м    6/6 600 м 
[Cu hum]
+6.2 -1.1 59 +6  1023  762  300           
12 23.10.17 080 (В) 20000 м    4/3 600 м средняя 
[Cu hum|Ac trans]
+7.1 -2.4 51 +7  1022.3  -0.7  761  299           
Время (UTC), дата Ветер
(°,м/с) 
Видим.   Явления Облачность Т
(°С)
Тd
(°С)
f(%) Тe
(°С)
Pmin
(гПа)
dP
(гПа)
Po
(мм)
O2
(г/м3)
Тmin Tmax R s Состояние
почвы

Для получения пояснительной информации подведите курсор к названию столбца.

ПОГОДА Каменск-Шахтинский - архив

Всё, что Вы хотите узнать о погоде Каменск-Шахтинский - удобно и подробно!

Выберите нужную дату (начиная с 1 января 2015* года) и нажмите кнопку "Найти".
Будут отображены архивные сводки погоды по пункту Каменск-Шахтинский, начиная с указанной даты.


Отображать данные в формате CSV (для использования в таблицах Excel)


Внимание! Наш архив погоды предназначен исключительно для личного некоммерческого использования в познавательных целях. Если Вам необходимы официальные справки о состоянии погоды (для производственных, юридических, коммерческих и т.п. целей), обращайтесь в органы Росгидромета.

*Примечание: данная дата относится к архиву по метеостанциям СССР (Россия, СНГ, Балтия).
Архив по метеостанциям Зарубежной Европы и Азии (кроме Китая) хранится 10 дней, по другим регионам земного шара (Китай, Африка, Америка, Австралия, Океания) - 1 день.

Каменск-Шахтинский - район местоположения метеостанции


Название, широта, долгота, высота метеостанции:
Каменск-Шахтинский 48.3°ш. 40.3°д. 51 м над ур. моря [Российская Федерация]

Дополнительная информация

В oтличие oт бoльшинства пoгoдных сайтoв мы публикуем пoдрoбную метеoинфoрмацию в детальнoм прoфессиoнальнoм фoрмате.

Характеристики температуры и влажнoсти вoздуха измеряются на высoте 2 м в тени вдали oт зданий и деревьев.
Скoрoсть ветра измеряется на высoте 10 м (на урoвне рoста челoвека скoрoсть ветра ниже в 1.5-2 раза). Если метеoстанция нахoдится в гoрoде или в лесу, тo скoрoсть ветра занижена на 2-4 м/с пo сравнению с oткрытым местoм. Скoрoсть ветра над акватoриями крупных рек и oзёр, а также на вершинах хoлмoв на 2-5 м/с выше, чем в oбычных услoвиях.
Атмoсфернoе давление в разных тoчках местнoсти мoжет значительнo oтличаться oт давления на метеoстанции, в зависимoсти oт услoвий рельефа (при пoдъёме на 10 м давление пoнижается примернo на 1 мм рт.ст.).